Tracking 30009 objects as of 7-Dec-2024
HD Live streaming from Space Station
objects crossing your sky now

ATLAS 5 CENTAUR DEB

Track ATLAS 5 CENTAUR DEB now!


NORAD ID: 55857
Int'l Code: 2018-079HH
Perigee: 8,156.9 km
Apogee: 32,310.8 km
Inclination: 13.4 °
Period: 719.8 minutes
Semi major axis: 26604 km
RCS: Unknown
Launch date: October 17, 2018
Source: United States (US)
Launch site: AIR FORCE EASTERN TEST RANGE (AFETR)

Note: This is SATELLITE DEBRIS
Your satellite tracking list
Your tracking list is empty




NASA's NSSDC Master Catalog

Two Line Element Set (TLE):
1 55857U 18079HK  24341.39757964 -.00000051  00000-0  00000+0 0  9995
2 55857  13.3910  45.8053 4539371 294.6948  25.2081  2.00060889 15544
Source of the keplerian elements: AFSPC